This demonstration page uses our WeatherBlox Daily Observations layout. Learn more.

Left ArrowRight Arrow

53.62937, 11.41316

Hourly Observations for November 2, 2020

Temp ( °F °C ) Dew Point ( °F °C ) Humidity (%) Winds ( mph kmh ) Pressure ( in mb ) Visibility ( mi km ) Precip ( " mm )
5:50 am 05:50 Mostly Cloudy 63 17 61 16 94 94 S 13 20 29.62 1003 5 8 N/A
6:20 am 06:20 Mostly Cloudy 63 17 61 16 94 94 S 13 20 29.62 1003 5 8 N/A
6:50 am 06:50 Mostly Cloudy 63 17 61 16 94 94 S 12 19 29.62 1003 6 9 N/A
7:20 am 07:20 Mostly Cloudy 63 17 61 16 94 94 S 13 20 29.62 1003 30 48 N/A
7:50 am 07:50 Mostly Cloudy 64 18 61 16 88 88 S 14 22 29.62 1003 30 48 N/A
8:20 am 08:20 Mostly Cloudy 63 17 63 17 100 100 S 13 20 29.62 1003 30 48 N/A
8:50 am 08:50 Mostly Cloudy 64 18 61 16 88 88 S 14 22 29.65 1004 30 48 N/A
9:20 am 09:20 Mostly Cloudy 64 18 61 16 88 88 S 14 22 29.65 1004 30 48 N/A
9:50 am 09:50 Mostly Cloudy 64 18 61 16 88 88 S 14 22 29.65 1004 30 48 N/A
10:20 am 10:20 Mostly Cloudy 66 19 59 15 78 78 S 14 22 29.65 1004 30 48 N/A
10:50 am 10:50 Mostly Cloudy 66 19 59 15 78 78 S 15 24 29.65 1004 30 48 N/A
11:20 am 11:20 Mostly Cloudy 66 19 59 15 78 78 SW 17 28 29.65 1004 30 48 N/A
11:50 am 11:50 Mostly Cloudy 66 19 59 15 78 78 SW 18 30 29.65 1004 30 48 N/A
12:20 pm 12:20 Mostly Cloudy 68 20 59 15 73 73 SW 20 31 29.65 1004 30 48 N/A
12:50 pm 12:50 Partly Cloudy 68 20 59 15 73 73 S 18 30 29.62 1003 30 48 N/A
1:20 pm 13:20 Mostly Cloudy 66 19 59 15 78 78 S 18 30 29.65 1004 30 48 N/A
1:50 pm 13:50 Mostly Cloudy 66 19 59 15 78 78 SSW 20 31 29.65 1004 30 48 N/A
2:20 pm 14:20 Partly Cloudy 68 20 59 15 73 73 S 15 24 29.65 1004 30 48 N/A
2:50 pm 14:50 Partly Cloudy 66 19 57 14 73 73 S 17 28 29.65 1004 30 48 N/A
3:20 pm 15:20 Mostly Cloudy 66 19 57 14 73 73 S 16 26 29.65 1004 30 48 N/A
3:50 pm 15:50 Partly Cloudy 66 19 57 14 73 73 S 16 26 29.65 1004 30 48 N/A
4:20 pm 16:20 Mostly Sunny 64 18 57 14 78 78 S 13 20 29.65 1004 30 48 N/A
4:50 pm 16:50 Partly Cloudy 66 19 57 14 73 73 S 13 20 29.65 1004 30 48 N/A
5:20 pm 17:20 Partly Cloudy 66 19 57 14 73 73 S 14 22 29.65 1004 30 48 N/A
5:50 pm 17:50 Partly Cloudy 64 18 59 15 83 83 S 17 28 29.68 1005 30 48 N/A
6:20 pm 18:20 Mostly Cloudy with Light Rain 61 16 59 15 94 94 SSW 23 37 29.68 1005 6 9 N/A
6:50 pm 18:50 Mostly Cloudy 61 16 57 14 88 88 SSW 18 30 29.68 1005 30 48 N/A
7:20 pm 19:20 Mostly Cloudy 63 17 55 13 77 77 SSW 15 24 29.71 1006 30 48 N/A
7:50 pm 19:50 Partly Cloudy 61 16 57 14 88 88 SSW 13 20 29.71 1006 30 48 N/A
8:20 pm 20:20 Mostly Cloudy with Drizzle 59 15 54 12 82 82 WSW 15 24 29.74 1007 6 9 N/A
8:50 pm 20:50 Mostly Cloudy 57 14 50 10 77 77 WSW 9 15 29.77 1008 30 48 N/A
9:20 pm 21:20 Mostly Cloudy 57 14 46 8 67 67 WSW 13 20 29.80 1009 30 48 N/A
9:50 pm 21:50 Mostly Cloudy 57 14 45 7 63 63 WSW 12 19 29.83 1010 30 48 N/A

Powered by AerisWeather